Location: Nag� el Ma?a??a
(24.0667°N, 32.8833°E)
Time: 14:54:40
(UTC+00:00)

Cosmos 1943 - Pass Details

Date: 25 September 2021
Orbit: 833 x 850 km, 71.0° (Epoch: 16 October)

Event Time Altitude Azimuth Distance (km) Brightness Sun altitude
Exits shadow 02:32:24 - 207° (SSW) 3,060 5.8 -15.8°
Reaches altitude 10° 02:33:59 10° 210° (SSW) 2,463 5.3 -15.5°
Maximum altitude 02:39:34 60° 289° (WNW) 969 3.2 -14.2°
Drops below altitude 10° 02:45:10 10° 9° (N) 2,474 5.8 -12.9°
Sets 02:47:39 0° 13° (NNE) 3,410 6.6 -12.4°
